Regional Weather Roundup
Issued by NWS

Home | Current Version | Previous Version | Text Only | Print | Product List | Glossary On
Versions: 1 2 3 4 5 6 7 8 9 10 11 12 13 14 15 16 17 18 19 20 21 22 23 24 25 26 27
000
ASUS45 KPSR 281410
RWRAZ

ARIZONA HOURLY REGIONAL WEATHER ROUNDUP
NATIONAL WEATHER SERVICE PHOENIX AZ
700 AM MST TUE MAR 28 2017

NOTE: FAIR INDICATES FEW OR NO CLOUDS BELOW 12,000 FEET WITH NO
SIGNIFICANT WEATHER AND/OR OBSTRUCTIONS TO VISIBILITY.

AZZ001>003-036-281500-
NORTHWEST ARIZONA

CITY           SKY/WX    TMP DP  RH WIND       PRES   REMARKS
BULLHEAD CITY  CLEAR     63  23  22 N20G32    29.96R
KINGMAN        CLEAR     45  17  32 N10       29.98R
$$

AZZ004>008-015-016-018-281500-
NORTH CENTRAL ARIZONA

CITY           SKY/WX    TMP DP  RH WIND       PRES   REMARKS
GRAND CANYON   CLEAR     34  28  79 N5        29.93R WCI  30
WILLIAMS       CLOUDY    32  28  86 N7        29.93R WCI  26
PRESCOTT       CLEAR     37  32  82 NW12      29.92R WCI  29
FLAGSTAFF      MOCLDY    29  27  92 CALM      29.89R
PAYSON         CLEAR     36  32  87 CALM      29.89R
PAGE           CLOUDY    49  29  46 NW8       29.88R
$$

AZZ009>014-017-281500-
NORTHEAST ARIZONA

CITY           SKY/WX    TMP DP  RH WIND       PRES   REMARKS
WINSLOW        CLOUDY    39  36  89 SW3       29.88R
SAINT JOHNS    CLOUDY    35  34  96 NW3       29.84R
WINDOW ROCK    CLOUDY    35  30  82 SW5       29.87R WCI  31
SHOW LOW       PTCLDY    32  28  86 W5        29.87R WCI  27
$$

AZZ023-281500-
GREATER PHOENIX AREA

CITY           SKY/WX    TMP DP  RH WIND       PRES   REMARKS
PHOENIX        PTCLDY    58  37  45 W12       29.82R
BUCKEYE        CLEAR     55  36  47 N7        29.87R
GLENDALE       PTCLDY    57  37  47 NW7       29.85R
LUKE AFB       CLEAR     58  38  47 NW12      29.83R
DEER VALLEY    CLEAR     54  37  52 N8        29.83R
SCOTTSDALE     CLEAR     53  38  56 NW6       29.84R
MESA-FALCON    CLEAR    N/A N/A N/A NW6       29.80R
MESA-GATEWAY   PTCLDY    55  37  50 W6        29.83R
$$

AZZ027-028-281500-
SOUTHWEST MARICOPA COUNTY AND PINAL COUNTY

CITY           SKY/WX    TMP DP  RH WIND       PRES   REMARKS
CASA GRANDE    NOT AVBL
GILA BEND      CLEAR     57  34  41 SW6       29.86R
$$

AZZ503-504-507>509-281500-
SOUTHEAST ARIZONA

CITY           SKY/WX    TMP DP  RH WIND       PRES   REMARKS
TUCSON         CLEAR     51  44  77 E7        29.89R
DAVIS-MONTHAN  CLEAR     48  44  85 SE6       29.88R
RYAN FIELD     CLEAR     48  45  87 E6        29.89R
NOGALES        MOCLDY    47  37  68 S6        29.90F
SIERRA VISTA   CLOUDY    42  38  86 W7        29.89F
DOUGLAS        LGT RAIN  43  41  93 NW7       29.93R
SAFFORD        CLOUDY    51  37  58 NW6       29.82R
$$

AZZ020-021-025-026-031-281500-
SOUTHWEST ARIZONA

CITY           SKY/WX    TMP DP  RH WIND       PRES   REMARKS
YUMA           CLEAR     64  25  22 N8        29.91R
$$

CAZ031-033-041-043-047-048-061-281500-
SOUTHERN CALIFORNIA

CITY           SKY/WX    TMP DP  RH WIND       PRES   REMARKS
DOWNTOWN L.A.  CLEAR     57  50  77 E3        30.00S
L.A. AIRPORT   PTCLDY    55  44  66 E7        30.01R
SAN DIEGO      CLEAR     56  48  74 E3        30.01F
BURBANK        CLEAR     58  31  35 NW10      30.00R
ONTARIO        CLEAR     48  38  68 CALM      30.01R
RIVERSIDE      CLEAR     52  42  69 VRB3      30.01R
PALM SPRINGS   CLEAR     59  34  39 N5        30.01R
EL CENTRO NAS  PTCLDY    61  26  26 NW12      29.97R
IMPERIAL       CLEAR     62  31  31 NW8       29.95R
BLYTHE         CLEAR     63  25  23 NW15      29.93R
NEEDLES        CLEAR     62  24  23 NE8       29.95S
$$

NVZ020-UTZ003-281500-
SOUTHERN NEVADA-UTAH

CITY           SKY/WX    TMP DP  RH WIND       PRES   REMARKS
LAS VEGAS      CLEAR     56  20  24 NW18G28   30.02S
SALT LAKE CITY MOCLDY    39  32  76 NW14      30.11R WCI  31
$$

NMZ009-TXZ055-281500-
NEW MEXICO-WEST TEXAS

CITY           SKY/WX    TMP DP  RH WIND       PRES   REMARKS
ALBUQUERQUE    CLOUDY    43  39  86 NE7       29.85F
EL PASO        MOSUNNY   60  32  34 NW17      29.79R
$$


........................KEY........................
SKY/WX - SKY CONDITION/WEATHER
TMP    - TEMPERATURE IN FAHRENHEIT
DP     - DEW POINT IN FAHRENHEIT
RH     - RELATIVE HUMIDITY IN PERCENT
WIND   - DIRECTION AND SPEED IN MILES PER HOUR (MPH)
VRB    - VARIABLE WIND DIRECTION
PRES   - MEAN SEA LEVEL PRESSURE IN INCHES OF MERCURY
         F - FALLING PRESSURE   R - RISING PRESSURE
         S - STEADY PRESSURE
VSB    - VISIBILITY IN MILES
HX     - HEAT INDEX IN FAHRENHEIT
WCI    - WIND CHILL INDEX IN FAHRENHEIT
TC     - TEMPERATURE IN CELSIUS WHICH IS ALSO KNOWN AS
         TEMPERATURE IN CENTIGRADE
AFB    - AIR FORCE BASE
         LUKE AFB IS LUKE AIR FORCE BASE
         DAVIS-MONTHAN IS DAVIS-MONTHAN AIR FORCE BASE
NAS    - NAVAL AIR STATION
         EL CENTRO NAS IS EL CENTRO NAVAL AIR STATION
N/A    - NOT AVAILABLE





USA.gov is the U.S. government's official web portal to all federal, state and local government web resources and services.